Regional Weather Roundup
Issued by NWS

Home | Current Version | Previous Version | Graphics & Text | Print | Product List | Glossary On
Versions: 1 2 3 4 5 6 7 8 9 10 11 12 13 14 15 16 17 18 19 20 21 22 23 24 25 26 27 28 29 30 31 32 33 34 35 36 37 38 39 40 41 42 43 44 45 46 47 48 49 50
704
ASUS43 KBIS 122131
RWRND
NORTH DAKOTA REGIONAL WEATHER ROUNDUP
NATIONAL WEATHER SERVICE EASTERN NORTH DAKOTA/GRAND FORKS ND
300 PM CST FRI FEB 12 2016

  NOTE: "FAIR" INDICATES FEW OR NO CLOUDS BELOW 12,000 FEET WITH NO
  SIGNIFICANT WEATHER AND/OR OBSTRUCTIONS TO VISIBILITY.

NDZ001>003-009>011-017-122200-
...NORTHWEST NORTH DAKOTA...

CITY           SKY/WX    TMP DP  RH WIND       PRES   REMARKS
WILLISTON      MOSUNNY   14   0  53 E7        30.51F WCI   4
MINOT          SUNNY     10  -9  42 VRB3      30.57F
MINOT AFB      MOSUNNY    9  -5  53 CALM      30.57F
$$

NDZ018>021-031>035-040>046-122200-
...SOUTHWEST NORTH DAKOTA...

CITY           SKY/WX    TMP DP  RH WIND       PRES   REMARKS
BISMARCK       SUNNY     14   0  53 NE6       30.58F WCI   5
DICKINSON      CLOUDY    11  -1  58 SE8       30.44S WCI  -1
GARRISON         N/A      9  -4  55 SE5       30.54F WCI   1
HETTINGER      CLOUDY    14   3  61 E10       30.44S WCI   1
$$

NDZ004>008-012>016-024-026-027-054-122200-
...NORTHEAST NORTH DAKOTA...

CITY           SKY/WX    TMP DP  RH WIND       PRES   REMARKS
GRAND FORKS    CLOUDY     1  -9  62 NW15      30.67S WCI -18
GRAND FORKS AF MOSUNNY    0 -11  60 NW13      30.67R WCI -18
DEVILS LAKE    CLOUDY    -5 -12  72 N6        30.63F WCI -18
$$

NDZ022-023-025-028>030-036>039-047>053-122200-
...SOUTHEAST NORTH DAKOTA...

CITY           SKY/WX    TMP DP  RH WIND       PRES   REMARKS
JAMESTOWN      CLOUDY     1  -9  62 N10       30.60S WCI -15
FARGO          MOSUNNY    2  -9  60 N17       30.66R WCI -18
WAHPETON       PTCLDY     3  -6  66 NW16G22   30.64R WCI -16
$$




USA.gov is the U.S. government's official web portal to all federal, state and local government web resources and services.